881  
ASUS44 KLUB 190710  
RWRLUB  
WEST TEXAS WEATHER ROUNDUP  
NATIONAL WEATHER SERVICE LUBBOCK TX  
200 AM CDT THU OCT 19 2017  
 
NOTE: "FAIR" INDICATES FEW OR NO CLOUDS BELOW 12,000 FEET WITH NO  
SIGNIFICANT WEATHER AND/OR S TO VISIBILITY
.  
 
TXZ004-006>008-010-012-014-016-OKZ002-190800-  
TEXAS PANHANDLE/OKLAHOMA PANHANDLE  
 
CITY SKY/WX TMP DP RH WIND PRES REMARKS
 
AMARILLO CLOUDY 58 44 60 S13 30.08S  
BORGER CLOUDY 62 43 49 S8 30.05S  
CANADIAN CLEAR 56 46 68 CALM 30.05S  
DALHART CLOUDY 52 44 74 N6 30.10R  
DUMAS CLOUDY 53 45 73 SE8 30.07S  
GUYMON CLOUDY 53 46 77 SW7 30.06S  
HEREFORD CLOUDY 53 47 79 SW6 30.08S  
PAMPA CLEAR 57 42 57 SE9 30.08S  
PERRYTON CLOUDY 55 45 69 SE6 30.06S  

 
 
TXZ026-029-035-045-048-190800-  
SOUTHERN PANHANDLE/SOUTH PLAINS/ROLLING PLAINS  
 
CITY SKY/WX TMP DP RH WIND PRES REMARKS
 
CHILDRESS PTCLDY 61 41 47 SE8 30.06R  
SEMINOLE PTCLDY 53 43 70 CALM 30.08R  
LUBBOCK MOCLDY 58 41 53 S8 30.08S  
PLAINVIEW CLOUDY 56 41 57 S7 30.07S  
SNYDER CLEAR 60 44 54 S9 30.09S  

 
 
TXZ052-054-060>062-072-078-127-140-154-169-190800-  
PERMIAN BASIN/CONCHO VALLEY/BIG COUNTRY/EDWARDS PLATEAU  
 
CITY SKY/WX TMP DP RH WIND PRES REMARKS
 
ABILENE PTCLDY 64 44 48 S12G21 30.09S  
BIG SPRING CLOUDY 60 47 60 SE9 30.09S  
JUNCTION CLEAR 53 45 74 VRB5 30.11F  
MIDLAND PTCLDY 62 43 49 S10 30.06F  
SAN ANGELO CLEAR 56 44 64 CALM 30.09S  
SONORA CLOUDY 55 46 71 CALM 30.15S  
SWEETWATER CLEAR 64 45 49 S13G21 30.10S  
WINK CLEAR 61 46 57 SE14 30.02S  

 
 
TXZ055-058-074-075-080-082-190800-  
FAR WEST/SOUTHWEST MOUNTAINS/TRANS PECOS  
 
CITY SKY/WX TMP DP RH WIND PRES REMARKS
 
ALPINE CLOUDY 65 41 41 S9 30.19S  
DRYDEN N/A 59 50 72 N8 30.05F  
EL PASO MOCLDY 68 54 60 S7 30.08F  
FORT STOCKTON PTCLDY 63 46 54 SE13 30.07R  
GUADALUPE PASS CLOUDY 62 49 62 W14 30.17F  
MARFA CLEAR 56 47 71 E7 30.16F  
PECOS PTCLDY 59 49 68 SE3 30.02S  
PRESIDIO FAIR 73 44 36 E3 30.05F  

 
 
TXZ014-016-019-021>030-083-190800  
TEXAS TECH WEST TEXAS MESONET/TEXAS PANHANDLE/NORTHERN SOUTH PLAINS  
 
CITY SKY/WX TMP DP RH WIND PRES REMARKS
 
ABERNATHY 5ENE N/A 55 44 65 S7 30.09S  
AMARILLO 9NNE N/A 59 43 56 S12 30.06S  
AMARILLO 7SSE N/A 56 43 61 SE7 30.09S  
AMHERST 1NE N/A 53 45 73 S6 30.09S  
BOOTLEG 11WNW N/A 51 39 63 S9 30.11S  
CANADIAN 6E N/A 59 43 55 SE6 30.04S  
CAPROCK CYN SP N/A 62 40 44 E6 30.06R  
CHILDRESS 2NNE N/A 57 42 56 SE7 30.05S  
CLARENDON 2WSW N/A 58 40 51 SE7 30.07S  
CLAUDE 12SW N/A 62 41 45 S7 30.09S  
DIMMITT 2NE N/A 54 46 73 S10 30.09S  
FLOYDADA 2NNE N/A 61 39 44 S10 30.08S  
FRIONA 2NE N/A 56 48 75 S12 30.09S  
GOODLETT 3W N/A 61 41 48 CALM 30.04S  
HART 3N N/A 54 43 66 S3 30.09S  
HEREFORD 2NW N/A 52 44 73 S2 30.08R  
MCLEAN 1E N/A 57 40 53 SE7 30.06S  
MEMPHIS 1NE N/A 55 44 67 CALM 30.05F  
MULESHOE 2SSW N/A 49 44 84 CALM 30.09S  
OLTON 6S N/A 54 43 66 S9 30.08F  
PALO DURO SP N/A 62 41 46 S8 30.09S  
PAMPA 2E N/A 55 43 64 SE9 30.08S  
PLAINVIEW 1S N/A 57 43 58 S6 30.08S  
SILVERTON 7ESE N/A 59 39 47 S6 30.07S  
TULIA 2ENE N/A 56 45 67 S8 30.08S  
TURKEY 2WSW N/A 56 45 65 E2 30.05R  
UMBARGER 3NNE N/A 54 45 71 S10 30.08S  

 
 
TXZ033>036-039>041-045>048-190800  
TEXAS TECH WEST TEXAS MESONET/SOUTH PLAINS  
 
CITY SKY/WX TMP DP RH WIND PRES REMARKS
 
AIKEN 3WSW N/A 55 42 61 S8 30.09S  
ANDREWS 2NE N/A 57 44 62 S8 30.06F  
ANTON 6SSW N/A 53 44 69 SE2 30.08S  
BROWNFIELD 2S N/A 53 41 63 SE6 30.08S  
DENVR CTY 7WNW N/A 50 42 74 S5 30.07S  
GAIL 2ESE N/A 56 39 52 SE5 30.07S  
LAMESA 2SE N/A 55 43 63 SE6 30.08S  
LUBBOCK 3WNW N/A 61 39 44 S8 30.08S  
MORTON 1ENE N/A 53 45 73 S3 30.08S  
ODONNELL 1N N/A 58 38 47 S6 30.08R  
PLAINS 3N N/A 53 43 67 SE3 30.08S  
RALLS 1SE N/A 60 38 44 S8 30.09S  
REESE CENTER N/A 55 41 59 S7 30.08S  
SEAGRAVES 1SW N/A 54 44 67 SE3 30.07S  
SEMINOLE 2NNE N/A 52 42 69 SE2 30.07S  
SLATON 2NE N/A 53 42 66 SE6 30.08F  
SNYDER 3E N/A 61 45 56 S10 30.08S  
SUNDOWN 8SW N/A 49 42 76 S7 30.08S  
TAHOKA 3NNE N/A 55 39 56 S8 30.08S  
WOLFFORTH 6SSW N/A 55 40 58 SE6 30.08S  

 
 
TXZ031-032-036>038-042>044-190800-  
TEXAS TECH WEST TEXAS MESONET/ROLLING PLAINS  
 
CITY SKY/WX TMP DP RH WIND PRES REMARKS
 
ASPERMONT 3NE N/A 58 40 51 S3 30.06R  
FLUVANNA 3WNW N/A 61 39 44 S10 30.08S  
GRAHAM 5SSW N/A 60 39 45 SE10 30.08S  
GUTHRIE 10WSW N/A 58 38 47 S5 30.05S  
HASKELL 1NW N/A 64 40 41 S9 30.06R  
JAYTON 1SSE N/A 62 40 43 S3 30.06S  
KNOX CITY 3NW N/A 60 40 48 SW6 30.06R  
LK A HENRY 1NW N/A 66 40 38 S10 30.06S  
ODELL 4ENE N/A 63 45 53 SE10 30.06R  
PADUCAH 10SW N/A 60 41 48 S12 30.04S  
POST 1NE N/A 63 38 39 S7 30.07S  
RRING SPRGS 3N N/A 57 43 57 S9 30.05F  
SEYMOUR 3NW N/A 63 42 46 S13 30.05S  
SPUR 1W N/A 53 42 66 SW3 30.06S  
WEINERT 2NNE N/A 64 43 46 S10 30.06S  
WHITE RVR 6NE N/A 61 37 40 S8 30.07S  

 
 
TXZ052-054-060>062-072-078-127-140-154-169-190800-  
TEXAS TECH WEST TEXAS MESONET/PERMIAN BASIN/  
CONCHO VALLEY/BIG COUNTRY/EDWARDS PLATEAU  
 
CITY SKY/WX TMP DP RH WIND PRES REMARKS
 
COYANOSA 2N N/A 61 48 62 E9 30.04S  
JUNCTION 1SSW N/A 44 41 89 CALM 30.12S  
MERTZON 3NNE N/A 59 46 61 S7 30.09F  
SAN ANGELO 7NW N/A 55 41 59 NE2 30.10S  
STRLNG CT 4WSW N/A 53 42 67 NE5 30.10S  
ST LAWRNCE 5SW N/A 58 47 66 SE8 30.08F  
SWEETWATR 11SW N/A 63 46 53 S15 30.10S  
WALL 1E N/A 52 44 73 E5 30.11S  

 
 
TXZ055-058-074-075-080-082-190800-  
TEXAS TECH WEST TEXAS MESONET/FAR WEST/SOUTHWEST MOUNTAINS/TRANS PECOS  
 
CITY SKY/WX TMP DP RH WIND PRES REMARKS
 
PRSMN GAP BBNP N/A 66 45 46 NW5 30.09R  
GUADLPE MTN NP N/A 67 44 43 NW17 30.17F  

 
 
 
CLICK HERE TO GO TO PREVIOUS BULLETINS.

The Nexlab TX Page Main Text Page